When you browse on this site, cookies collect data to enhance your experience and personalize the content and advertising you see.
Visit our Privacy Policy to learn more. By continuing to use the site, you agree to this use of cookies and data.
  • In Latvia
  • List of Countries
  • For 7 days
  • Water Temperature
  • Satellite Maps
  • Weather Map
  • Weather Widgets
  • user-avatar
    Login

    Hourly Weather Horgen

    Today, 22 July, Monday

    Time Temperature Precipitation Wind Pressure Humidity
    00:00 +19°C° 0 mm 1 mps 720 mmHg 91%
    01:00 +19°C° 0 mm 1 mps 721 mmHg 92%
    02:00 +19°C° 0 mm 1 mps 720 mmHg 92%
    03:00 +19°C° 0 mm 1 mps 720 mmHg 92%
    04:00 +18°C° 0 mm 1 mps 720 mmHg 92%
    05:00 +17°C° 0 mm 0 mps 720 mmHg 91%
    06:00 +18°C° 0 mm 0 mps 721 mmHg 90%
    07:00 +19°C° 0 mm 0 mps 721 mmHg 88%
    08:00 +21°C° 0 mm 0 mps 721 mmHg 79%
    09:00 +26°C° 0 mm 1 mps 721 mmHg 70%
    10:00 +28°C° 0 mm 1 mps 722 mmHg 61%
    11:00 +29°C° 0 mm 1 mps 722 mmHg 56%
    12:00 +30°C° 0 mm 1 mps 722 mmHg 52%
    13:00 +31°C° 0 mm 1 mps 721 mmHg 47%
    14:00 +31°C° 0 mm 1 mps 721 mmHg 47%
    15:00 +31°C° 0 mm 1 mps 721 mmHg 46%
    16:00 +31°C° 0 mm 1 mps 721 mmHg 46%
    17:00 +29°C° 0 mm 1 mps 721 mmHg 54%
    18:00 +28°C° 0 mm 1 mps 721 mmHg 63%
    19:00 +26°C° 0 mm 1 mps 720 mmHg 71%
    20:00 +24°C° 0 mm 1 mps 720 mmHg 75%
    21:00 +23°C° 0 mm 1 mps 720 mmHg 80%
    22:00 +21°C° 0 mm 1 mps 720 mmHg 84%
    23:00 +21°C° 0 mm 1 mps 720 mmHg 86%

    Tomorrow, 23 July, Tuesday

    Time Temperature Precipitation Wind Pressure Humidity
    00:00 +20°C° 0 mm 1 mps 720 mmHg 88%
    01:00 +18°C° 0 mm 0 mps 720 mmHg 90%
    02:00 +17°C° 0 mm 0 mps 719 mmHg 90%
    03:00 +17°C° 0 mm 0 mps 719 mmHg 91%
    04:00 +17°C° 0 mm 0 mps 719 mmHg 91%
    05:00 +18°C° 0 mm 0 mps 719 mmHg 88%
    06:00 +19°C° 0 mm 0 mps 719 mmHg 85%
    07:00 +20°C° 0 mm 0 mps 719 mmHg 82%
    08:00 +22°C° 0 mm 0 mps 719 mmHg 75%
    09:00 +26°C° 0 mm 1 mps 719 mmHg 67%
    10:00 +28°C° 0 mm 1 mps 719 mmHg 60%
    11:00 +29°C° 0 mm 1 mps 719 mmHg 55%
    12:00 +31°C° 0 mm 1 mps 719 mmHg 50%
    13:00 +32°C° 0 mm 2 mps 719 mmHg 45%
    14:00 +32°C° 0 mm 2 mps 719 mmHg 44%
    15:00 +32°C° 0 mm 2 mps 718 mmHg 44%
    16:00 +32°C° 0 mm 2 mps 718 mmHg 44%
    17:00 +31°C° 0 mm 2 mps 718 mmHg 54%
    18:00 +29°C° 0 mm 2 mps 718 mmHg 63%
    19:00 +27°C° 0 mm 1 mps 717 mmHg 73%
    20:00 +26°C° 0 mm 1 mps 717 mmHg 78%
    21:00 +24°C° 0 mm 1 mps 717 mmHg 83%
    22:00 +22°C° 0 mm 1 mps 717 mmHg 87%
    23:00 +22°C° 0 mm 1 mps 717 mmHg 88%

    Day after tomorrow, 24 July, Wednesday

    Time Temperature Precipitation Wind Pressure Humidity
    00:00 +19°C° 0 mm 0 mps 717 mmHg 88%
    01:00 +19°C° 0 mm 0 mps 717 mmHg 89%
    02:00 +19°C° 0 mm 0 mps 716 mmHg 89%
    03:00 +18°C° 0 mm 0 mps 716 mmHg 89%
    04:00 +18°C° 0 mm 0 mps 716 mmHg 89%
    05:00 +19°C° 0 mm 0 mps 716 mmHg 87%
    06:00 +20°C° 0 mm 0 mps 716 mmHg 85%
    07:00 +21°C° 0 mm 0 mps 717 mmHg 83%
    08:00 +24°C° 0 mm 0 mps 717 mmHg 74%
    09:00 +26°C° 0 mm 0 mps 717 mmHg 66%
    10:00 +31°C° 0 mm 1 mps 717 mmHg 57%
    11:00 +32°C° 0 mm 1 mps 717 mmHg 51%
    12:00 +33°C° 0 mm 1 mps 717 mmHg 46%
    13:00 +35°C° 0 mm 1 mps 717 mmHg 40%
    14:00 +34°C° 0 mm 1 mps 717 mmHg 39%
    15:00 +34°C° 0 mm 1 mps 717 mmHg 38%
    16:00 +34°C° 0 mm 1 mps 717 mmHg 37%
    17:00 +32°C° 0 mm 1 mps 716 mmHg 46%
    18:00 +28°C° 0 mm 0 mps 716 mmHg 54%
    19:00 +26°C° 0 mm 0 mps 716 mmHg 63%
    20:00 +25°C° 0 mm 0 mps 716 mmHg 65%
    21:00 +25°C° 0 mm 1 mps 716 mmHg 68%
    22:00 +24°C° 0 mm 1 mps 716 mmHg 70%
    23:00 +23°C° 0 mm 1 mps 716 mmHg 72%

    25 July, Thursday

    Time Temperature Precipitation Wind Pressure Humidity
    00:00 +23°C° 0 mm 1 mps 716 mmHg 73%
    01:00 +22°C° 0 mm 1 mps 716 mmHg 74%
    02:00 +22°C° 0 mm 1 mps 716 mmHg 75%
    03:00 +21°C° 0 mm 1 mps 716 mmHg 77%
    04:00 +19°C° 0 mm 0 mps 716 mmHg 78%
    05:00 +20°C° 0 mm 0 mps 716 mmHg 77%
    06:00 +21°C° 0 mm 0 mps 716 mmHg 76%
    07:00 +22°C° 0 mm 0 mps 716 mmHg 74%
    08:00 +24°C° 0 mm 0 mps 716 mmHg 67%
    09:00 +28°C° 0 mm 1 mps 716 mmHg 60%
    10:00 +31°C° 0 mm 1 mps 716 mmHg 53%
    11:00 +32°C° 0.1 mm 1 mps 716 mmHg 49%
    12:00 +33°C° 0.1 mm 1 mps 716 mmHg 45%
    13:00 +35°C° 0.1 mm 1 mps 716 mmHg 41%
    14:00 +34°C° 0.1 mm 1 mps 716 mmHg 42%
    15:00 +34°C° 0.1 mm 1 mps 716 mmHg 42%
    16:00 +34°C° 0.1 mm 1 mps 715 mmHg 43%
    17:00 +32°C° 0 mm 1 mps 715 mmHg 52%
    18:00 +30°C° 0 mm 1 mps 715 mmHg 61%
    19:00 +29°C° 0 mm 1 mps 715 mmHg 70%
    20:00 +27°C° 0 mm 1 mps 715 mmHg 72%
    21:00 +26°C° 0 mm 1 mps 715 mmHg 75%
    22:00 +25°C° 0 mm 1 mps 715 mmHg 78%
    23:00 +24°C° 0 mm 1 mps 715 mmHg 78%

    26 July, Friday

    Time Temperature Precipitation Wind Pressure Humidity
    00:00 +24°C° 0 mm 1 mps 715 mmHg 78%
    01:00 +23°C° 0 mm 1 mps 715 mmHg 79%
    02:00 +21°C° 0 mm 0 mps 714 mmHg 79%
    03:00 +21°C° 0 mm 0 mps 714 mmHg 79%
    04:00 +21°C° 0 mm 0 mps 714 mmHg 79%
    05:00 +21°C° 0 mm 0 mps 714 mmHg 78%
    06:00 +22°C° 0 mm 0 mps 714 mmHg 77%
    07:00 +23°C° 0 mm 0 mps 714 mmHg 76%
    08:00 +25°C° 0 mm 0 mps 714 mmHg 69%
    09:00 +27°C° 0 mm 0 mps 714 mmHg 62%
    10:00 +32°C° 0 mm 1 mps 714 mmHg 54%
    11:00 +33°C° 0.2 mm 1 mps 714 mmHg 50%
    12:00 +34°C° 0.2 mm 1 mps 714 mmHg 46%
    13:00 +35°C° 0.2 mm 1 mps 714 mmHg 42%
    14:00 +34°C° 0.6 mm 2 mps 713 mmHg 48%
    15:00 +32°C° 0.6 mm 2 mps 713 mmHg 55%
    16:00 +30°C° 0.6 mm 3 mps 713 mmHg 61%
    17:00 +27°C° 5.1 mm 3 mps 713 mmHg 72%
    18:00 +24°C° 5.1 mm 3 mps 713 mmHg 84%
    19:00 +20°C° 5.1 mm 3 mps 713 mmHg 95%
    20:00 +20°C° 0.3 mm 2 mps 713 mmHg 95%
    21:00 +21°C° 0.3 mm 1 mps 713 mmHg 94%
    22:00 +21°C° 0.3 mm 1 mps 714 mmHg 94%
    23:00 +20°C° 0.1 mm 1 mps 713 mmHg 93%

    27 July, Saturday

    Time Temperature Precipitation Wind Pressure Humidity
    00:00 +20°C° 0.1 mm 1 mps 713 mmHg 93%
    01:00 +20°C° 0.1 mm 1 mps 713 mmHg 92%
    02:00 +19°C° 0.2 mm 1 mps 713 mmHg 93%
    03:00 +19°C° 0.2 mm 1 mps 713 mmHg 94%
    04:00 +19°C° 0.2 mm 1 mps 713 mmHg 95%
    05:00 +19°C° 0.2 mm 1 mps 713 mmHg 95%
    06:00 +20°C° 0.2 mm 1 mps 713 mmHg 94%
    07:00 +20°C° 0.2 mm 1 mps 713 mmHg 94%
    08:00 +21°C° 0.1 mm 1 mps 713 mmHg 92%
    09:00 +22°C° 0.1 mm 1 mps 713 mmHg 91%
    10:00 +22°C° 0.1 mm 1 mps 713 mmHg 89%
    11:00 +23°C° 0.1 mm 1 mps 713 mmHg 84%
    12:00 +24°C° 0.1 mm 2 mps 713 mmHg 78%
    13:00 +25°C° 0.1 mm 2 mps 713 mmHg 73%
    14:00 +25°C° 0.8 mm 2 mps 713 mmHg 77%
    15:00 +24°C° 0.8 mm 2 mps 713 mmHg 80%
    16:00 +24°C° 0.8 mm 1 mps 713 mmHg 84%
    17:00 +23°C° 2.8 mm 1 mps 713 mmHg 88%
    18:00 +22°C° 2.8 mm 1 mps 713 mmHg 92%
    19:00 +21°C° 2.8 mm 1 mps 713 mmHg 96%
    20:00 +20°C° 4.5 mm 1 mps 713 mmHg 97%
    21:00 +19°C° 4.5 mm 1 mps 713 mmHg 97%
    22:00 +19°C° 4.5 mm 1 mps 714 mmHg 97%
    23:00 +19°C° 1.9 mm 1 mps 714 mmHg 97%
    Show more